,,,PA_Meas_PMT16A,,PR_Meas_QMR101_102,,RH_Meas_QMH101,,SR_Meas_QMS101,,TA_Meas_QMH101,,GenWind,,GenWind,
date,time,status,PA,status,PR,status,RH,status,SR,status,TA,status,DirAvg,status,SpdAvg,
2012-02-01, 00:00:05,VALID,1001.4,VALID,0,VALID,92.3031,VALID,0.104696,VALID,23.0183,VALID,149,VALID,1.23281,
2012-02-01, 00:01:05,VALID,1001.43,VALID,0,VALID,92.4557,VALID,0,VALID,23.0556,VALID,149,VALID,0.776172,
2012-02-01, 00:02:05,VALID,1001.43,VALID,0,VALID,92.4405,VALID,0.104696,VALID,23.0751,VALID,149,VALID,0.5125,
2012-02-01, 00:03:05,VALID,1001.43,VALID,0,VALID,92.3413,VALID,0,VALID,23.0751,VALID,149,VALID,0.523438,
2012-02-01, 00:04:05,VALID,1001.38,VALID,0,VALID,92.2726,VALID,0,VALID,23.0946,VALID,149,VALID,0.466797,
2012-02-01, 00:05:05,VALID,1001.37,VALID,0,VALID,92.2116,VALID,0,VALID,23.0946,VALID,149,VALID,0.246875,
2012-02-01, 00:06:05,VALID,1001.38,VALID,0,VALID,92.204,VALID,0.104696,VALID,23.1141,VALID,149,VALID,0.219141,
2012-02-01, 00:07:05,VALID,1001.35,VALID,0,VALID,92.2268,VALID,0,VALID,23.1549,VALID,149,VALID,0.146094,
2012-02-01, 00:08:05,VALID,1001.34,VALID,0,VALID,92.3031,VALID,0,VALID,23.1744,VALID,150,VALID,0.394141,
2012-02-01, 00:09:05,VALID,1001.33,VALID,0,VALID,92.3413,VALID,0.104696,VALID,23.1939,VALID,149,VALID,0.457812,
2012-02-01, 00:10:05,VALID,1001.31,VALID,0,VALID,92.2497,VALID,0,VALID,23.1939,VALID,166,VALID,0.690625,
2012-02-01, 00:11:05,VALID,1001.28,VALID,0,VALID,92.3031,VALID,0,VALID,23.1939,VALID,166,VALID,0.579297,
2012-02-01, 00:12:05,VALID,1001.27,VALID,0,VALID,92.4252,VALID,0,VALID,23.2329,VALID,166,VALID,0.662109,
2012-02-01, 00:13:05,VALID,1001.26,VALID,0,VALID,92.3413,VALID,0.104696,VALID,23.2117,VALID,166,VALID,0.632031,
2012-02-01, 00:14:05,VALID,1001.26,VALID,0,VALID,92.2726,VALID,0,VALID,23.2329,VALID,149,VALID,0.877734,
2012-02-01, 00:15:05,VALID,1001.24,VALID,0,VALID,92.3108,VALID,0,VALID,23.2117,VALID,145,VALID,0.259766,
2012-02-01, 00:16:05,VALID,1001.24,VALID,0,VALID,92.2497,VALID,0,VALID,23.2329,VALID,145,VALID,0.446484,
2012-02-01, 00:17:05,VALID,1001.23,VALID,0,VALID,92.2574,VALID,0,VALID,23.2329,VALID,145,VALID,0.635938,
2012-02-01, 00:18:05,VALID,1001.23,VALID,0,VALID,92.1277,VALID,0,VALID,23.2134,VALID,145,VALID,0.387891,
2012-02-01, 00:19:05,VALID,1001.22,VALID,0,VALID,92.059,VALID,0,VALID,23.1744,VALID,145,VALID,0,
2012-02-01, 00:20:05,VALID,1001.24,VALID,0,VALID,92.1048,VALID,0,VALID,23.1957,VALID,145,VALID,0.000390625,
2012-02-01, 00:21:05,VALID,1001.26,VALID,0,VALID,92.1963,VALID,0,VALID,23.1762,VALID,145,VALID,0,
2012-02-01, 00:22:05,VALID,1001.22,VALID,0,VALID,92.3108,VALID,0,VALID,23.1957,VALID,145,VALID,0.314844,
2012-02-01, 00:23:05,VALID,1001.2,VALID,0,VALID,92.3794,VALID,0,VALID,23.1939,VALID,144,VALID,0.448047,
2012-02-01, 00:24:05,VALID,1001.18,VALID,0,VALID,92.4939,VALID,0,VALID,23.1957,VALID,77,VALID,0.760156,
2012-02-01, 00:25:05,VALID,1001.18,VALID,0,VALID,92.5626,VALID,0,VALID,23.1939,VALID,77,VALID,0.528906,
2012-02-01, 00:26:05,VALID,1001.16,VALID,0,VALID,92.5473,VALID,0,VALID,23.1957,VALID,77,VALID,0.403906,
2012-02-01, 00:27:05,VALID,1001.17,VALID,0,VALID,92.4481,VALID,0,VALID,23.1762,VALID,77,VALID,0.649219,
2012-02-01, 00:28:05,VALID,1001.15,VALID,0,VALID,92.3337,VALID,0,VALID,23.0981,VALID,41,VALID,0.916797,
2012-02-01, 00:29:05,VALID,1001.16,VALID,0,VALID,92.1124,VALID,0,VALID,22.9988,VALID,40,VALID,0.751953,
2012-02-01, 00:30:05,VALID,1001.21,VALID,0,VALID,92.1353,VALID,0,VALID,22.9208,VALID,34,VALID,1.00742,
2012-02-01, 00:31:05,VALID,1001.19,VALID,0,VALID,92.1811,VALID,0,VALID,22.9013,VALID,34,VALID,1.15078,
2012-02-01, 00:32:05,VALID,1001.17,VALID,0,VALID,92.0895,VALID,0,VALID,22.8232,VALID,34,VALID,0.782422,
2012-02-01, 00:33:05,VALID,1001.17,VALID,0,VALID,92.1048,VALID,0.104696,VALID,22.763,VALID,34,VALID,0.817578,
2012-02-01, 00:34:05,VALID,1001.1,VALID,0,VALID,92.2803,VALID,0.104696,VALID,22.724,VALID,34,VALID,0.6125,
2012-02-01, 00:35:05,VALID,1001.08,VALID,0,VALID,92.2879,VALID,0.104696,VALID,22.7062,VALID,34,VALID,0.487891,
2012-02-01, 00:36:05,VALID,1001.04,VALID,0,VALID,92.2268,VALID,0,VALID,22.6477,VALID,34,VALID,0.273047,
2012-02-01, 00:37:05,VALID,1001.04,VALID,0,VALID,92.2268,VALID,0,VALID,22.6087,VALID,34,VALID,0.299609,
2012-02-01, 00:38:05,VALID,1001.04,VALID,0,VALID,92.2803,VALID,0,VALID,22.5679,VALID,34,VALID,0.36875,
2012-02-01, 00:39:05,VALID,1001,VALID,0,VALID,92.3566,VALID,0,VALID,22.5289,VALID,34,VALID,0.359766,
2012-02-01, 00:40:05,VALID,1001,VALID,0,VALID,92.4328,VALID,0,VALID,22.5111,VALID,34,VALID,0.0757812,
2012-02-01, 00:41:05,VALID,1000.99,VALID,0,VALID,92.4634,VALID,0,VALID,22.5111,VALID,34,VALID,0,
2012-02-01, 00:42:05,VALID,1001,VALID,0,VALID,92.4252,VALID,0,VALID,22.4721,VALID,34,VALID,0.379297,
2012-02-01, 00:43:05,VALID,1000.98,VALID,0,VALID,92.5931,VALID,0,VALID,22.4721,VALID,72,VALID,0.358203,
2012-02-01, 00:44:05,VALID,1001.02,VALID,0,VALID,92.7151,VALID,0,VALID,22.4721,VALID,72,VALID,0.292969,
2012-02-01, 00:45:05,VALID,1001.03,VALID,0,VALID,92.7228,VALID,0,VALID,22.4509,VALID,72,VALID,0.210156,
2012-02-01, 00:46:05,VALID,1001.03,VALID,0,VALID,92.7533,VALID,0.104696,VALID,22.4526,VALID,72,VALID,0.288672,
2012-02-01, 00:47:05,VALID,1001.04,VALID,0,VALID,92.8601,VALID,0,VALID,22.4721,VALID,72,VALID,0.435547,
2012-02-01, 00:48:05,VALID,1001.09,VALID,0,VALID,93.0051,VALID,0,VALID,22.4916,VALID,53,VALID,0.54375,
2012-02-01, 00:49:05,VALID,1001.04,VALID,0,VALID,93.0966,VALID,0,VALID,22.5306,VALID,347,VALID,0.840234,
2012-02-01, 00:50:05,VALID,1001.06,VALID,0,VALID,93.1958,VALID,0,VALID,22.5289,VALID,336,VALID,0.708203,
2012-02-01, 00:51:05,VALID,1001.07,VALID,0,VALID,93.2568,VALID,0,VALID,22.5696,VALID,333,VALID,0.585156,
2012-02-01, 00:52:05,VALID,1001.03,VALID,0,VALID,93.2187,VALID,0,VALID,22.5909,VALID,333,VALID,0.21875,
2012-02-01, 00:53:05,VALID,1001.02,VALID,0,VALID,93.1805,VALID,0,VALID,22.5892,VALID,333,VALID,0.232422,
2012-02-01, 00:54:05,VALID,1001.01,VALID,0,VALID,93.1577,VALID,0,VALID,22.6104,VALID,333,VALID,0.488672,
2012-02-01, 00:55:05,VALID,1000.98,VALID,0,VALID,93.1882,VALID,0,VALID,22.6299,VALID,333,VALID,0.314063,
2012-02-01, 00:56:05,VALID,1001.01,VALID,0,VALID,93.2187,VALID,0,VALID,22.6672,VALID,333,VALID,0,
2012-02-01, 00:57:05,VALID,1001,VALID,0,VALID,93.234,VALID,0,VALID,22.6884,VALID,333,VALID,0,
2012-02-01, 00:58:05,VALID,1000.98,VALID,0,VALID,93.2492,VALID,0,VALID,22.7062,VALID,333,VALID,0.403516,
2012-02-01, 00:59:05,VALID,1000.96,VALID,0,VALID,93.234,VALID,0,VALID,22.7257,VALID,322,VALID,0.516016,
2012-02-01, 01:00:05,VALID,1000.95,VALID,0,VALID,93.2492,VALID,0,VALID,22.7842,VALID,239,VALID,0.528516,
2012-02-01, 01:01:05,VALID,1000.95,VALID,0,VALID,93.2797,VALID,0,VALID,22.825,VALID,239,VALID,0.350781,
2012-02-01, 01:02:05,VALID,1000.96,VALID,0,VALID,93.2492,VALID,0,VALID,22.8232,VALID,239,VALID,0.182812,
2012-02-01, 01:03:05,VALID,1000.94,VALID,0,VALID,93.1882,VALID,0,VALID,22.8427,VALID,239,VALID,0,
2012-02-01, 01:04:05,VALID,1000.9,VALID,0,VALID,93.0814,VALID,0,VALID,22.802,VALID,239,VALID,0,
2012-02-01, 01:05:05,VALID,1000.93,VALID,0,VALID,92.9974,VALID,0,VALID,22.802,VALID,239,VALID,0,
2012-02-01, 01:06:05,VALID,1000.88,VALID,0,VALID,92.9517,VALID,0.104696,VALID,22.802,VALID,239,VALID,0.325781,
2012-02-01, 01:07:05,VALID,1000.86,VALID,0,VALID,92.9135,VALID,0,VALID,22.8037,VALID,210,VALID,0.429688,
2012-02-01, 01:08:05,VALID,1000.83,VALID,0,VALID,92.8296,VALID,0,VALID,22.7435,VALID,188,VALID,0.644531,
2012-02-01, 01:09:05,VALID,1000.84,VALID,0,VALID,92.7991,VALID,0,VALID,22.7647,VALID,170,VALID,0.778125,
2012-02-01, 01:10:05,VALID,1000.83,VALID,0,VALID,92.8448,VALID,0,VALID,22.7452,VALID,152,VALID,0.91875,
2012-02-01, 01:11:05,VALID,1000.8,VALID,0,VALID,92.8906,VALID,0,VALID,22.724,VALID,152,VALID,0.799609,
2012-02-01, 01:12:05,VALID,1000.79,VALID,0,VALID,92.822,VALID,0,VALID,22.7257,VALID,152,VALID,0.583984,
2012-02-01, 01:13:05,VALID,1000.8,VALID,0,VALID,92.7609,VALID,0.104696,VALID,22.7045,VALID,152,VALID,0.435156,
2012-02-01, 01:14:05,VALID,1000.76,VALID,0,VALID,92.6999,VALID,0,VALID,22.7062,VALID,152,VALID,0.261719,
2012-02-01, 01:15:05,VALID,1000.74,VALID,0,VALID,92.6465,VALID,0,VALID,22.6867,VALID,152,VALID,0,
2012-02-01, 01:16:05,VALID,1000.75,VALID,0,VALID,92.532,VALID,0,VALID,22.6655,VALID,152,VALID,0,
2012-02-01, 01:17:05,VALID,1000.73,VALID,0,VALID,92.471,VALID,0,VALID,22.6069,VALID,152,VALID,0,
2012-02-01, 01:18:05,VALID,1000.73,VALID,0,VALID,92.5778,VALID,0,VALID,22.5892,VALID,152,VALID,0,
2012-02-01, 01:19:05,VALID,1000.74,VALID,0,VALID,92.532,VALID,0,VALID,22.5501,VALID,152,VALID,0,
2012-02-01, 01:20:05,VALID,1000.71,VALID,0,VALID,92.6007,VALID,0,VALID,22.5111,VALID,249,VALID,0.426172,
2012-02-01, 01:21:05,VALID,1000.75,VALID,0,VALID,92.8448,VALID,0,VALID,22.5323,VALID,285,VALID,0.583984,
2012-02-01, 01:22:05,VALID,1000.73,VALID,0,VALID,92.9974,VALID,0,VALID,22.5306,VALID,285,VALID,0.484375,
2012-02-01, 01:23:05,VALID,1000.74,VALID,0,VALID,93.1195,VALID,0,VALID,22.5714,VALID,285,VALID,0.717578,
2012-02-01, 01:24:05,VALID,1000.73,VALID,0,VALID,93.1729,VALID,0,VALID,22.5501,VALID,285,VALID,0.400781,
2012-02-01, 01:25:05,VALID,1000.73,VALID,0,VALID,93.1805,VALID,0,VALID,22.5306,VALID,285,VALID,0.449219,
2012-02-01, 01:26:05,VALID,1000.69,VALID,0,VALID,93.2492,VALID,0,VALID,22.5501,VALID,285,VALID,0.372266,
2012-02-01, 01:27:05,VALID,1000.66,VALID,0,VALID,93.3026,VALID,0,VALID,22.5501,VALID,285,VALID,0.439063,
2012-02-01, 01:28:05,VALID,1000.65,VALID,0,VALID,93.3331,VALID,0,VALID,22.5696,VALID,285,VALID,0.173047,
2012-02-01, 01:29:05,VALID,1000.63,VALID,0,VALID,93.3484,VALID,0,VALID,22.5501,VALID,285,VALID,0,
2012-02-01, 01:30:05,VALID,1000.62,VALID,0,VALID,93.3484,VALID,0,VALID,22.5714,VALID,285,VALID,0,
2012-02-01, 01:31:05,VALID,1000.58,VALID,0,VALID,93.3484,VALID,0,VALID,22.5696,VALID,285,VALID,0,
2012-02-01, 01:32:05,VALID,1000.57,VALID,0,VALID,93.3255,VALID,0,VALID,22.5714,VALID,285,VALID,0,
2012-02-01, 01:33:05,VALID,1000.57,VALID,0,VALID,93.295,VALID,0,VALID,22.5306,VALID,285,VALID,0,
2012-02-01, 01:34:05,VALID,1000.6,VALID,0,VALID,93.295,VALID,0,VALID,22.5306,VALID,285,VALID,0,
2012-02-01, 01:35:05,VALID,1000.59,VALID,0,VALID,93.3255,VALID,0,VALID,22.5306,VALID,285,VALID,0,
2012-02-01, 01:36:05,VALID,1000.58,VALID,0,VALID,93.4094,VALID,0,VALID,22.5094,VALID,285,VALID,0,
2012-02-01, 01:37:05,VALID,1000.57,VALID,0,VALID,93.4705,VALID,0,VALID,22.5501,VALID,287,VALID,0.45,
2012-02-01, 01:38:05,VALID,1000.54,VALID,0,VALID,93.5239,VALID,0,VALID,22.5289,VALID,29,VALID,0.719141,
2012-02-01, 01:39:05,VALID,1000.5,VALID,0,VALID,93.5391,VALID,0,VALID,22.5501,VALID,29,VALID,0.724219,
2012-02-01, 01:40:05,VALID,1000.47,VALID,0,VALID,93.5926,VALID,0,VALID,22.5696,VALID,41,VALID,0.956641,
2012-02-01, 01:41:05,VALID,1000.46,VALID,0,VALID,93.6307,VALID,0,VALID,22.5501,VALID,41,VALID,0.946875,
2012-02-01, 01:42:05,VALID,1000.44,VALID,0,VALID,93.5544,VALID,0.104696,VALID,22.5306,VALID,41,VALID,0.792188,
2012-02-01, 01:43:05,VALID,1000.44,VALID,0,VALID,93.5086,VALID,0,VALID,22.5094,VALID,48,VALID,0.860156,
2012-02-01, 01:44:05,VALID,1000.43,VALID,0,VALID,93.501,VALID,0,VALID,22.4899,VALID,54,VALID,0.937109,
2012-02-01, 01:45:05,VALID,1000.4,VALID,0,VALID,93.5697,VALID,0,VALID,22.5306,VALID,54,VALID,0.631641,
2012-02-01, 01:46:05,VALID,1000.39,VALID,0,VALID,93.562,VALID,0,VALID,22.5306,VALID,54,VALID,0.438281,
2012-02-01, 01:47:05,VALID,1000.39,VALID,0,VALID,93.5239,VALID,0.104696,VALID,22.5094,VALID,54,VALID,0.385547,
2012-02-01, 01:48:05,VALID,1000.4,VALID,0,VALID,93.4781,VALID,0,VALID,22.4916,VALID,54,VALID,0.0101562,
2012-02-01, 01:49:05,VALID,1000.37,VALID,0,VALID,93.4628,VALID,0,VALID,22.4916,VALID,54,VALID,0,
2012-02-01, 01:50:05,VALID,1000.39,VALID,0,VALID,93.4018,VALID,0,VALID,22.4721,VALID,54,VALID,0,
2012-02-01, 01:51:05,VALID,1000.4,VALID,0,VALID,93.4094,VALID,0,VALID,22.4721,VALID,54,VALID,0,
2012-02-01, 01:52:05,VALID,1000.4,VALID,0,VALID,93.4094,VALID,0,VALID,22.4738,VALID,54,VALID,0,
2012-02-01, 01:53:05,VALID,1000.45,VALID,0,VALID,93.4552,VALID,0,VALID,22.4721,VALID,54,VALID,0,
2012-02-01, 01:54:05,VALID,1000.42,VALID,0,VALID,93.4247,VALID,0,VALID,22.4933,VALID,54,VALID,0,
2012-02-01, 01:55:05,VALID,1000.43,VALID,0,VALID,93.4247,VALID,0,VALID,22.4933,VALID,54,VALID,0,
2012-02-01, 01:56:05,VALID,1000.43,VALID,0,VALID,93.4552,VALID,0,VALID,22.4916,VALID,54,VALID,0,
2012-02-01, 01:57:05,VALID,1000.43,VALID,0,VALID,93.4628,VALID,0,VALID,22.4933,VALID,54,VALID,0,
2012-02-01, 01:58:05,VALID,1000.43,VALID,0,VALID,93.4857,VALID,0,VALID,22.5128,VALID,54,VALID,0,
2012-02-01, 01:59:05,VALID,1000.41,VALID,0,VALID,93.5468,VALID,0,VALID,22.5111,VALID,54,VALID,0,
2012-02-01, 02:00:05,VALID,1000.41,VALID,0,VALID,93.5773,VALID,0,VALID,22.5519,VALID,54,VALID,0,
2012-02-01, 02:01:05,VALID,1000.37,VALID,0,VALID,93.6231,VALID,0,VALID,22.5714,VALID,54,VALID,0,
2012-02-01, 02:02:05,VALID,1000.4,VALID,0,VALID,93.646,VALID,0,VALID,22.5501,VALID,54,VALID,0,
2012-02-01, 02:03:05,VALID,1000.37,VALID,0,VALID,93.6612,VALID,0,VALID,22.5909,VALID,54,VALID,0,
2012-02-01, 02:04:05,VALID,1000.4,VALID,0,VALID,93.6536,VALID,0,VALID,22.6104,VALID,54,VALID,0,
2012-02-01, 02:05:05,VALID,1000.34,VALID,0,VALID,93.646,VALID,0,VALID,22.5714,VALID,54,VALID,0,
2012-02-01, 02:06:05,VALID,1000.36,VALID,0,VALID,93.5926,VALID,0,VALID,22.5909,VALID,54,VALID,0,
2012-02-01, 02:07:05,VALID,1000.38,VALID,0,VALID,93.5697,VALID,0,VALID,22.5909,VALID,54,VALID,0,
2012-02-01, 02:08:05,VALID,1000.36,VALID,0,VALID,93.5697,VALID,0,VALID,22.5714,VALID,54,VALID,0,
2012-02-01, 02:09:05,VALID,1000.35,VALID,0,VALID,93.5468,VALID,0,VALID,22.5501,VALID,54,VALID,0,
2012-02-01, 02:10:05,VALID,1000.36,VALID,0,VALID,93.5468,VALID,0,VALID,22.5306,VALID,47,VALID,0,
2012-02-01, 02:11:05,VALID,1000.36,VALID,0,VALID,93.4934,VALID,0,VALID,22.5306,VALID,24,VALID,0.371094,
2012-02-01, 02:12:05,VALID,1000.35,VALID,0,VALID,93.4781,VALID,0,VALID,22.5111,VALID,24,VALID,0.386328,
2012-02-01, 02:13:05,VALID,1000.35,VALID,0,VALID,93.5163,VALID,0,VALID,22.4916,VALID,24,VALID,0.358984,
2012-02-01, 02:14:05,VALID,1000.32,VALID,0,VALID,93.5391,VALID,0,VALID,22.4916,VALID,24,VALID,0.364453,
2012-02-01, 02:15:05,VALID,1000.33,VALID,0,VALID,93.5849,VALID,0,VALID,22.5128,VALID,24,VALID,0.241016,
2012-02-01, 02:16:05,VALID,1000.33,VALID,0,VALID,93.6078,VALID,0,VALID,22.5128,VALID,24,VALID,0.412891,
2012-02-01, 02:17:05,VALID,1000.3,VALID,0,VALID,93.6765,VALID,0,VALID,22.5111,VALID,24,VALID,0.457422,
2012-02-01, 02:18:05,VALID,1000.26,VALID,0,VALID,93.707,VALID,0,VALID,22.5306,VALID,24,VALID,0.328125,
2012-02-01, 02:19:05,VALID,1000.26,VALID,0,VALID,93.7528,VALID,0,VALID,22.5519,VALID,24,VALID,0.489844,
2012-02-01, 02:20:05,VALID,1000.24,VALID,0,VALID,93.768,VALID,0,VALID,22.5501,VALID,24,VALID,0.398438,
2012-02-01, 02:21:05,VALID,1000.23,VALID,0,VALID,93.7223,VALID,0,VALID,22.5501,VALID,24,VALID,0.147656,
2012-02-01, 02:22:05,VALID,1000.21,VALID,0,VALID,93.6994,VALID,0,VALID,22.5306,VALID,24,VALID,0,
2012-02-01, 02:23:05,VALID,1000.21,VALID,0,VALID,93.6917,VALID,0,VALID,22.5306,VALID,24,VALID,0.00234375,
2012-02-01, 02:24:05,VALID,1000.24,VALID,0,VALID,93.6383,VALID,0,VALID,22.5111,VALID,24,VALID,0.387891,
2012-02-01, 02:25:05,VALID,1000.23,VALID,0,VALID,93.6841,VALID,0,VALID,22.5128,VALID,24,VALID,0.514453,
2012-02-01, 02:26:05,VALID,1000.26,VALID,0,VALID,93.7451,VALID,0,VALID,22.5306,VALID,24,VALID,0.611719,
2012-02-01, 02:27:05,VALID,1000.26,VALID,0,VALID,93.8062,VALID,0,VALID,22.5306,VALID,24,VALID,0.576953,
2012-02-01, 02:28:05,VALID,1000.26,VALID,0,VALID,93.7985,VALID,0,VALID,22.5909,VALID,24,VALID,0.617578,
2012-02-01, 02:29:05,VALID,1000.26,VALID,0,VALID,93.8138,VALID,0,VALID,22.6104,VALID,62,VALID,0.927734,
2012-02-01, 02:30:05,VALID,1000.25,VALID,0,VALID,93.7833,VALID,0,VALID,22.5909,VALID,62,VALID,0.824219,
2012-02-01, 02:31:05,VALID,1000.21,VALID,0,VALID,93.7223,VALID,0,VALID,22.5696,VALID,62,VALID,0.54375,
2012-02-01, 02:32:05,VALID,1000.17,VALID,0,VALID,93.6612,VALID,0,VALID,22.5909,VALID,62,VALID,0.554688,
2012-02-01, 02:33:05,VALID,1000.15,VALID,0,VALID,93.6002,VALID,0,VALID,22.5519,VALID,62,VALID,0.385156,
2012-02-01, 02:34:05,VALID,1000.14,VALID,0,VALID,93.5773,VALID,0,VALID,22.5519,VALID,73,VALID,0.703125,
2012-02-01, 02:35:05,VALID,1000.1,VALID,0,VALID,93.6231,VALID,0,VALID,22.5714,VALID,98,VALID,0.853516,
2012-02-01, 02:36:05,VALID,1000.1,VALID,0,VALID,93.6688,VALID,0,VALID,22.5501,VALID,101,VALID,1.10586,
2012-02-01, 02:37:05,VALID,1000.06,VALID,0,VALID,93.7604,VALID,0,VALID,22.5892,VALID,105,VALID,1.21875,
2012-02-01, 02:38:05,VALID,1000.08,VALID,0,VALID,93.8291,VALID,0,VALID,22.6299,VALID,105,VALID,1.11406,
2012-02-01, 02:39:04,VALID,1000.08,VALID,0,VALID,93.8901,VALID,0,VALID,22.6884,VALID,111,VALID,1.14336,
2012-02-01, 02:40:04,VALID,1000.09,VALID,0,VALID,93.9359,VALID,0,VALID,22.7257,VALID,111,VALID,1.35547,
2012-02-01, 02:41:04,VALID,1000.06,VALID,0,VALID,93.9664,VALID,0,VALID,22.8055,VALID,112,VALID,1.13164,
2012-02-01, 02:42:04,VALID,1000.09,VALID,0,VALID,94.0045,VALID,0,VALID,22.8835,VALID,111,VALID,1.13086,
2012-02-01, 02:43:04,VALID,1000.06,VALID,0,VALID,93.9206,VALID,0,VALID,22.9013,VALID,120,VALID,1.14531,
2012-02-01, 02:44:04,VALID,1000.09,VALID,0,VALID,93.7909,VALID,0,VALID,22.9403,VALID,120,VALID,0.960547,
2012-02-01, 02:45:04,VALID,1000.12,VALID,0,VALID,93.6688,VALID,0,VALID,22.9615,VALID,120,VALID,0.451953,
2012-02-01, 02:46:04,VALID,1000.12,VALID,0,VALID,93.4705,VALID,0,VALID,22.9615,VALID,120,VALID,0,
2012-02-01, 02:47:04,VALID,1000.12,VALID,0,VALID,93.2568,VALID,0,VALID,22.9013,VALID,120,VALID,0,
2012-02-01, 02:48:04,VALID,1000.12,VALID,0,VALID,93.1195,VALID,0,VALID,22.8818,VALID,120,VALID,0,
2012-02-01, 02:49:04,VALID,1000.1,VALID,0,VALID,92.944,VALID,0,VALID,22.8232,VALID,2,VALID,0.764063,
2012-02-01, 02:50:04,VALID,1000.09,VALID,0,VALID,92.7228,VALID,0,VALID,22.7452,VALID,336,VALID,0.880078,
2012-02-01, 02:51:04,VALID,1000.06,VALID,0,VALID,92.7762,VALID,0,VALID,22.7079,VALID,330,VALID,0.488281,
2012-02-01, 02:52:04,VALID,1000.07,VALID,0,VALID,92.944,VALID,0,VALID,22.6884,VALID,330,VALID,0.348828,
2012-02-01, 02:53:04,VALID,1000.04,VALID,0,VALID,93.0966,VALID,0,VALID,22.6884,VALID,330,VALID,0,
2012-02-01, 02:54:04,VALID,1000.04,VALID,0,VALID,93.1577,VALID,0,VALID,22.6282,VALID,330,VALID,0,
2012-02-01, 02:55:04,VALID,1000.05,VALID,0,VALID,93.2568,VALID,0,VALID,22.6494,VALID,330,VALID,0,
2012-02-01, 02:56:04,VALID,1000.06,VALID,0,VALID,93.3484,VALID,0,VALID,22.6477,VALID,330,VALID,0,
2012-02-01, 02:57:04,VALID,1000.08,VALID,0,VALID,93.3789,VALID,0,VALID,22.6494,VALID,330,VALID,0,
2012-02-01, 02:58:04,VALID,1000.1,VALID,0,VALID,93.3789,VALID,0,VALID,22.6282,VALID,330,VALID,0.684375,
2012-02-01, 02:59:04,VALID,1000.08,VALID,0,VALID,93.4018,VALID,0,VALID,22.6494,VALID,330,VALID,0.351172,
2012-02-01, 03:00:04,VALID,1000.08,VALID,0,VALID,93.4628,VALID,0,VALID,22.6299,VALID,330,VALID,0,
2012-02-01, 03:01:04,VALID,1000.09,VALID,0,VALID,93.501,VALID,0,VALID,22.6299,VALID,330,VALID,0,
2012-02-01, 03:02:04,VALID,1000.07,VALID,0,VALID,93.5239,VALID,0,VALID,22.6511,VALID,330,VALID,0,
2012-02-01, 03:03:04,VALID,1000.09,VALID,0,VALID,93.5544,VALID,0,VALID,22.6299,VALID,330,VALID,0,
2012-02-01, 03:04:04,VALID,1000.1,VALID,0,VALID,93.5773,VALID,0,VALID,22.6299,VALID,320,VALID,0.402734,
2012-02-01, 03:05:04,VALID,1000.1,VALID,0,VALID,93.6078,VALID,0,VALID,22.6494,VALID,320,VALID,0.240625,
2012-02-01, 03:06:04,VALID,1000.11,VALID,0,VALID,93.6231,VALID,0,VALID,22.6299,VALID,320,VALID,0.449219,
2012-02-01, 03:07:04,VALID,1000.14,VALID,0,VALID,93.6154,VALID,0,VALID,22.6282,VALID,321,VALID,0,
2012-02-01, 03:08:04,VALID,1000.16,VALID,0,VALID,93.5391,VALID,0,VALID,22.6494,VALID,320,VALID,0,
2012-02-01, 03:09:04,VALID,1000.15,VALID,0,VALID,93.4934,VALID,0,VALID,22.5892,VALID,320,VALID,0,
2012-02-01, 03:10:04,VALID,1000.16,VALID,0,VALID,93.5315,VALID,0,VALID,22.5892,VALID,320,VALID,0.410156,
2012-02-01, 03:11:04,VALID,1000.18,VALID,0,VALID,93.5391,VALID,0,VALID,22.5892,VALID,320,VALID,0.0582031,
2012-02-01, 03:12:04,VALID,1000.18,VALID,0,VALID,93.5773,VALID,0,VALID,22.6087,VALID,320,VALID,0,
2012-02-01, 03:13:04,VALID,1000.22,VALID,0,VALID,93.6078,VALID,0,VALID,22.6494,VALID,320,VALID,0,
2012-02-01, 03:14:04,VALID,1000.23,VALID,0,VALID,93.6841,VALID,0,VALID,22.6689,VALID,320,VALID,0,
2012-02-01, 03:15:04,VALID,1000.28,VALID,0,VALID,93.6917,VALID,0,VALID,22.6884,VALID,320,VALID,0.401172,
2012-02-01, 03:16:04,VALID,1000.26,VALID,0,VALID,93.6917,VALID,0,VALID,22.7079,VALID,320,VALID,0.261328,
2012-02-01, 03:17:04,VALID,1000.28,VALID,0,VALID,93.707,VALID,0,VALID,22.7062,VALID,320,VALID,0.0871094,
2012-02-01, 03:18:04,VALID,1000.28,VALID,0,VALID,93.6612,VALID,0,VALID,22.7257,VALID,320,VALID,0.18125,
2012-02-01, 03:19:04,VALID,1000.31,VALID,0,VALID,93.6383,VALID,0,VALID,22.7469,VALID,265,VALID,0.739844,
2012-02-01, 03:20:04,VALID,1000.31,VALID,0,VALID,93.6154,VALID,0,VALID,22.7452,VALID,263,VALID,0.528125,
2012-02-01, 03:21:04,VALID,1000.33,VALID,0,VALID,93.5697,VALID,0,VALID,22.7664,VALID,263,VALID,0.348437,
2012-02-01, 03:22:04,VALID,1000.35,VALID,0,VALID,93.501,VALID,0,VALID,22.7469,VALID,263,VALID,0.685156,
2012-02-01, 03:23:04,VALID,1000.37,VALID,0,VALID,93.4857,VALID,0,VALID,22.7452,VALID,263,VALID,0.694531,
2012-02-01, 03:24:04,VALID,1000.37,VALID,0,VALID,93.4476,VALID,0,VALID,22.7469,VALID,263,VALID,0,
2012-02-01, 03:25:04,VALID,1000.37,VALID,0,VALID,93.4018,VALID,0,VALID,22.7274,VALID,263,VALID,0,
2012-02-01, 03:26:04,VALID,1000.35,VALID,0,VALID,93.3713,VALID,0,VALID,22.7062,VALID,263,VALID,0,
2012-02-01, 03:27:04,VALID,1000.33,VALID,0,VALID,93.295,VALID,0,VALID,22.6672,VALID,263,VALID,0,
2012-02-01, 03:28:04,VALID,1000.31,VALID,0,VALID,93.3026,VALID,0,VALID,22.6867,VALID,159,VALID,1.03828,
2012-02-01, 03:29:04,VALID,1000.32,VALID,0,VALID,93.3942,VALID,0,VALID,22.7079,VALID,165,VALID,1.28359,
2012-02-01, 03:30:04,VALID,1000.26,VALID,0,VALID,93.4171,VALID,0,VALID,22.7469,VALID,176,VALID,1.36836,
2012-02-01, 03:31:04,VALID,1000.25,VALID,0,VALID,93.4171,VALID,0,VALID,22.7647,VALID,180,VALID,1.47031,
2012-02-01, 03:32:04,VALID,1000.22,VALID,0,VALID,93.3866,VALID,0,VALID,22.8037,VALID,179,VALID,1.39922,
2012-02-01, 03:33:04,VALID,1000.25,VALID,0,VALID,93.3255,VALID,0,VALID,22.8232,VALID,180,VALID,1.30742,
2012-02-01, 03:34:04,VALID,1000.26,VALID,0,VALID,93.2568,VALID,0,VALID,22.8623,VALID,170,VALID,0.384375,
2012-02-01, 03:35:04,VALID,1000.26,VALID,0,VALID,93.1805,VALID,0,VALID,22.8623,VALID,199,VALID,0.255078,
2012-02-01, 03:36:04,VALID,1000.27,VALID,0,VALID,93.089,VALID,0,VALID,22.864,VALID,293,VALID,0.236719,
2012-02-01, 03:37:04,VALID,1000.28,VALID,0,VALID,93.0356,VALID,0,VALID,22.8427,VALID,293,VALID,0.315234,
2012-02-01, 03:38:04,VALID,1000.22,VALID,0,VALID,93.0356,VALID,0,VALID,22.8232,VALID,293,VALID,0.669531,
2012-02-01, 03:39:04,VALID,1000.26,VALID,0,VALID,93.0508,VALID,0,VALID,22.8037,VALID,292,VALID,0.479688,
2012-02-01, 03:40:04,VALID,1000.25,VALID,0,VALID,93.0814,VALID,0,VALID,22.8037,VALID,260,VALID,0.785547,
2012-02-01, 03:41:04,VALID,1000.25,VALID,0,VALID,93.1653,VALID,0,VALID,22.8037,VALID,248,VALID,0.841016,
2012-02-01, 03:42:04,VALID,1000.27,VALID,0,VALID,93.1805,VALID,0,VALID,22.8037,VALID,250,VALID,0.495313,
2012-02-01, 03:43:04,VALID,1000.25,VALID,0,VALID,93.1958,VALID,0,VALID,22.8037,VALID,247,VALID,0.694531,
2012-02-01, 03:44:04,VALID,1000.25,VALID,0,VALID,93.2034,VALID,0,VALID,22.8037,VALID,236,VALID,0.669531,
2012-02-01, 03:45:04,VALID,1000.25,VALID,0,VALID,93.2187,VALID,0,VALID,22.8037,VALID,235,VALID,0.428125,
2012-02-01, 03:46:04,VALID,1000.24,VALID,0,VALID,93.2034,VALID,0,VALID,22.8232,VALID,235,VALID,0.405469,
2012-02-01, 03:47:04,VALID,1000.23,VALID,0,VALID,93.1577,VALID,0,VALID,22.8232,VALID,235,VALID,0.225391,
2012-02-01, 03:48:04,VALID,1000.23,VALID,0,VALID,93.1805,VALID,0,VALID,22.8427,VALID,232,VALID,0.00078125,